sat.trackr.live / text

‹ back to catalog

STARLINK-37315

NORAD 68816 · 2026-089Q

PAYLOAD ACTIVE UNKNOWN

§ Identity

Operator
Country
US
Launch date
2026-04-23
Launch site
AFWTR
Launch vehicle
Mass (kg)
RCS (m²)

Purposes: comms

External: N2YO · Heavens-Above · Gunter

§ Orbital elements

Epoch: 2026-09-20T00:10:52.707072Z

Period
93.91 min
Inclination
97.2807°
Eccentricity
0.0000966
Mean motion
15.33456344 rev/d
Perigee alt
464.8 km
Apogee alt
466.2 km
Semi-major
6,843.6 km
B*
6.2263e-4
RAAN
108.7771°
Arg perigee
75.8976°
Mean anomaly
284.2374°
Rev number
2,318

§ Raw data

STARLINK-373151 68816U 26089Q   26263.00755448  .00020086  00000+0  62263-3 0  99932 68816  97.2807 108.7771 0000966  75.8976 284.2374 15.33456344 23180

JSON: /api/v1/satellites/68816 · /tle

For live sub-satellite position, see the globe view (requires WebGL).

§ Visibility from observer

Set your observer location to see the next 7 days of passes ≥ 10°. The values pass through the URL so the page stays shareable.

No JS? Fill the form by hand. The geolocation button needs JavaScript.